CW9718 Weather Reports


Display with metric or nautical units.
time (UTC)temp
F
wind
direction
speed
MPH
gust
MPH
rain 1hr
in
rain 24hr
in
rain mn
in
humidity
%
barometer
mb
20260506030826 52 339 3.0 8.0 0.00 0.00 0.00 82 1012.6
20260506030329 52 348 2.0 8.0 0.00 0.00 0.00 82 1012.5
20260506025830 52 347 2.0 8.0 0.00 0.00 0.00 82 1012.6
20260506025342 52 344 2.0 9.0 0.00 0.00 0.00 82 1012.4
20260506024840 52 345 4.0 9.0 0.00 0.00 0.00 82 1012.1
20260506024344 52 338 2.0 9.0 0.00 0.00 0.00 82 1011.8
20260506023833 52 346 2.0 12.0 0.00 0.00 0.00 81 1011.7
20260506023339 52 340 3.0 12.0 0.00 0.00 0.00 81 1011.6
20260506022838 52 355 3.0 6.0 0.00 0.00 0.00 81 1011.4
20260506022327 52 347 2.0 6.0 0.00 0.00 0.00 81 1011.3
20260506021829 52 344 2.0 5.0 0.00 0.00 0.00 81 1011.3
20260506021357 52 344 3.0 6.0 0.00 0.00 0.00 81 1011.2
20260506020838 52 348 3.0 6.0 0.00 0.00 0.00 81 1011.0
20260506020323 52 344 2.0 6.0 0.00 0.00 0.00 81 1011.0
20260506015835 52 346 2.0 11.0 0.00 0.00 0.00 81 1011.0
20260506015332 52 344 3.0 11.0 0.00 0.00 0.00 81 1011.1
20260506014837 52 340 2.0 8.0 0.00 0.00 0.00 81 1010.8
20260506014323 52 350 2.0 9.0 0.00 0.00 0.00 82 1010.6
20260506013843 53 342 2.0 9.0 0.00 0.00 0.00 83 1010.6
20260506013327 53 342 2.0 8.0 0.00 0.00 0.00 83 1010.6
20260506012826 53 355 2.0 11.0 0.00 0.00 0.00 84 1010.6
20260506012336 53 332 2.0 6.0 0.00 0.00 0.00 84 1010.2
20260506011845 53 64 1.0 9.0 0.00 0.00 0.00 84 1010.4
20260506011341 53 338 4.0 11.0 0.00 0.00 0.00 83 1010.3
20260506010857 53 5 3.0 11.0 0.00 0.00 0.00 83 1010.2
20260506010335 53 339 2.0 5.0 0.00 0.00 0.00 84 1010.1
20260506005828 53 355 2.0 13.0 0.00 0.00 0.00 84 1010.1
20260506005331 53 344 3.0 13.0 0.00 0.00 0.00 84 1010.0
20260506004849 53 348 3.0 11.0 0.00 0.00 0.00 84 1010.1
20260506004342 53 350 3.0 11.0 0.00 0.00 0.00 84 1009.7
20260506003832 53 355 3.0 10.0 0.00 0.00 0.00 84 1009.6
20260506003336 53 349 2.0 11.0 0.00 0.00 0.00 84 1009.7
20260506002905 53 331 3.0 11.0 0.00 0.00 0.00 84 1009.8
20260506002338 53 336 3.0 8.0 0.00 0.00 0.00 84 1009.7
20260506001848 54 360 3.0 9.0 0.00 0.00 0.00 83 1009.5
20260506001351 54 5 3.0 8.0 0.00 0.00 0.00 83 1009.4
20260506000840 54 66 3.0 11.0 0.00 0.00 0.00 83 1009.5
20260506000401 54 349 4.0 11.0 0.00 0.00 0.00 83 1009.7
20260505235841 54 355 3.0 10.0 0.00 0.00 0.00 83 1009.7
20260505235334 54 350 3.0 9.0 0.00 0.00 0.00 83 1009.8
20260505234837 55 350 3.0 9.0 0.00 0.00 0.00 83 1009.7
20260505234334 55 349 2.0 8.0 0.00 0.00 0.00 83 1009.7
20260505233825 55 336 3.0 8.0 0.00 0.00 0.00 84 1009.8
20260505233345 55 355 2.0 8.0 0.00 0.00 0.00 84 1009.5
20260505232836 55 346 3.0 8.0 0.00 0.00 0.00 84 1009.6
20260505232334 56 334 3.0 10.0 0.00 0.00 0.00 84 1009.1
20260505231840 56 341 5.0 12.0 0.00 0.00 0.00 84 1008.9
20260505231326 56 342 4.0 12.0 0.00 0.00 0.00 84 1008.9
20260505230844 56 73 3.0 12.0 0.00 0.00 0.00 84 1008.8
20260505230350 56 349 3.0 12.0 0.00 0.00 0.00 83 1008.5
20260505225853 57 355 2.0 9.0 0.00 0.00 0.00 83 1008.3
20260505225339 57 342 2.0 9.0 0.00 0.00 0.00 83 1008.1
20260505224838 57 346 2.0 9.0 0.00 0.00 0.00 83 1008.2
20260505224326 57 84 3.0 9.0 0.00 0.00 0.00 83 1008.0
20260505223843 57 339 3.0 11.0 0.00 0.00 0.00 82 1007.8
20260505223404 57 341 6.0 11.0 0.00 0.00 0.00 82 1007.6
20260505222827 58 355 3.0 14.0 0.00 0.00 0.00 82 1007.5
20260505222355 58 348 6.0 14.0 0.00 0.00 0.00 82 1007.6
20260505221843 58 267 2.0 15.0 0.00 0.00 0.00 82 1007.6
20260505221327 58 335 3.0 11.0 0.00 0.00 0.00 82 1007.8
20260505220844 59 343 4.0 11.0 0.00 0.00 0.00 81 1008.0
20260505220329 59 53 3.0 9.0 0.00 0.00 0.00 82 1007.8
20260505215838 60 323 3.0 10.0 0.00 0.00 0.00 82 1007.7
20260505215329 60 343 3.0 10.0 0.00 0.00 0.00 81 1007.4
20260505214838 60 65 2.0 6.0 0.00 0.00 0.00 81 1007.4
20260505214325 60 69 2.0 9.0 0.00 0.00 0.00 80 1007.2
20260505213834 61 340 3.0 12.0 0.00 0.00 0.00 79 1007.4
20260505213344 61 5 3.0 12.0 0.00 0.00 0.00 79 1007.5
20260505212850 62 349 2.0 12.0 0.00 0.00 0.00 80 1007.7
20260505212337 62 82 3.0 8.0 0.00 0.00 0.00 80 1007.5
20260505211844 62 344 2.0 17.0 0.00 0.00 0.00 80 1007.5
20260505211327 63 24 3.0 17.0 0.00 0.00 0.00 79 1007.4
20260505210836 63 10 5.0 16.0 0.00 0.00 0.00 79 1007.4
20260505210337 63 342 2.0 16.0 0.00 0.00 0.00 79 1006.8
20260505205827 64 5 2.0 12.0 0.00 0.00 0.00 79 1006.7
20260505205331 64 355 2.0 12.0 0.00 0.00 0.00 78 1007.1
20260505204833 64 325 3.0 11.0 0.00 0.00 0.00 78 1007.4
20260505204340 65 355 2.0 14.0 0.00 0.00 0.00 78 1007.4
20260505203839 65 327 4.0 16.0 0.00 0.00 0.00 78 1006.7
20260505202834 66 333 5.0 15.0 0.00 0.00 0.00 78 1005.9
20260505202329 66 336 6.0 12.0 0.00 0.00 0.00 77 1005.8
20260505201833 67 330 3.0 13.0 0.00 0.00 0.00 77 1005.0
20260505201339 67 50 5.0 13.0 0.00 0.00 0.00 75 1005.3
20260505200831 68 26 4.0 10.0 0.00 0.00 0.00 74 1005.5
20260505200341 69 331 3.0 10.0 0.00 0.00 0.00 73 1005.8
20260505195836 71 341 3.0 11.0 0.00 0.00 0.00 70 1006.1
20260505195326 73 360 4.0 12.0 0.00 0.00 0.00 66 1006.7
20260505194837 76 318 3.0 12.0 0.00 0.00 0.00 64 1006.6
20260505194327 78 331 3.0 12.0 0.00 0.00 0.00 77 1006.3
20260505193836 78 163 1.0 2.0 0.00 0.00 0.00 76 1005.9
20260505193324 78 162 0.0 1.0 0.00 0.00 0.00 77 1005.4
20260505192843 78 161 0.0 1.0 0.00 0.00 0.00 77 1004.9
20260505192344 78 162 0.0 3.0 0.00 0.00 0.00 77 1004.8
20260505191833 77 158 0.0 2.0 0.00 0.00 0.00 77 1004.8
20260505191333 77 158 0.0 2.0 0.00 0.00 0.00 78 1004.7
20260505190840 77 158 0.0 2.0 0.00 0.00 0.00 78 1004.7
20260505190340 77 157 0.0 3.0 0.00 0.00 0.00 79 1004.8
20260505185831 77 157 1.0 3.0 0.00 0.00 0.00 79 1004.8
20260505185334 77 157 0.0 1.0 0.00 0.00 0.00 80 1005.3
20260505184845 76 157 0.0 1.0 0.00 0.00 0.00 79 1005.6
20260505184337 76 157 0.0 3.0 0.00 0.00 0.00 79 1005.8
20260505183844 76 157 1.0 3.0 0.00 0.00 0.00 79 1005.7
20260505183338 76 157 0.0 1.0 0.00 0.00 0.00 80 1005.8
20260505182824 76 157 0.0 1.0 0.00 0.00 0.00 79 1005.7
20260505182338 76 157 0.0 2.0 0.00 0.00 0.00 79 1005.6
20260505181846 76 157 0.0 1.0 0.00 0.00 0.00 79 1005.5
20260505181339 76 157 0.0 3.0 0.00 0.00 0.00 79 1005.3
20260505180835 76 157 0.0 3.0 0.00 0.00 0.00 79 1005.3
20260505180331 76 157 0.0 5.0 0.00 0.00 0.00 80 1005.4
20260505175830 76 157 1.0 5.0 0.00 0.00 0.00 79 1005.5
20260505175331 76 157 0.0 5.0 0.00 0.00 0.00 80 1005.3
20260505174830 76 154 1.0 5.0 0.00 0.00 0.00 80 1005.2
20260505174340 76 158 0.0 6.0 0.00 0.00 0.00 82 1005.2
20260505173829 75 157 1.0 6.0 0.00 0.00 0.00 81 1005.1
20260505173328 75 155 1.0 5.0 0.00 0.00 0.00 82 1005.2
20260505172846 75 153 0.0 4.0 0.00 0.00 0.00 82 1004.2
20260505172334 75 155 0.0 3.0 0.00 0.00 0.00 82 1005.1
20260505171833 74 161 1.0 3.0 0.00 0.00 0.00 82 1005.1
20260505170824 74 152 1.0 6.0 0.00 0.00 0.00 82 1005.1
20260505170329 74 148 1.0 3.0 0.00 0.00 0.00 83 1005.1
20260505165330 74 178 0.0 2.0 0.00 0.00 0.00 83 1005.2
20260505164832 74 179 1.0 8.0 0.00 0.00 0.00 83 1005.1
20260505164352 73 150 1.0 8.0 0.00 0.00 0.00 83 1005.0
20260505163853 73 138 2.0 8.0 0.00 0.00 0.00 84 1005.1
20260505163332 73 161 0.0 6.0 0.00 0.00 0.00 84 1004.9
20260505162825 73 136 2.0 8.0 0.00 0.00 0.00 84 1004.9
20260505162336 73 156 1.0 6.0 0.00 0.00 0.00 84 1005.0
20260505161831 73 155 1.0 7.0 0.00 0.00 0.00 84 1004.9
20260505161331 73 153 1.0 7.0 0.00 0.00 0.00 84 1005.1
20260505160901 73 152 1.0 7.0 0.00 0.00 0.00 84 1005.1
20260505160345 73 143 1.0 5.0 0.00 0.00 0.00 84 1005.1
20260505153333 72 158 1.0 6.0 0.00 0.00 0.00 84 1004.9
20260505152831 72 158 1.0 6.0 0.00 0.00 0.00 84 1004.7
20260505152337 72 160 1.0 3.0 0.00 0.00 0.00 85 1004.9
20260505151836 72 160 0.0 5.0 0.00 0.00 0.00 85 1004.9
20260505151343 72 161 1.0 9.0 0.00 0.00 0.00 85 1004.9
20260505150829 72 142 0.0 9.0 0.00 0.00 0.00 85 1004.9
20260505150339 71 167 1.0 5.0 0.00 0.00 0.00 86 1004.8
20260505140335 70 161 0.0 2.0 0.00 0.00 0.00 87 1005.2
20260505124822 70 144 0.0 5.0 0.00 0.00 0.00 86 1004.5
20260505124345 70 144 1.0 5.0 0.00 0.00 0.00 86 1004.1
20260505123856 70 150 0.0 9.0 0.00 0.00 0.00 86 1004.0
20260505123333 70 150 1.0 9.0 0.00 0.00 0.00 86 1003.9
20260505122839 70 152 2.0 7.0 0.00 0.00 0.00 86 1003.9
20260505122336 70 163 1.0 5.0 0.00 0.00 0.00 86 1003.7
20260505121827 70 165 1.0 5.0 0.00 0.00 0.00 86 1003.6
20260505121331 70 130 1.0 6.0 0.00 0.00 0.00 86 1003.4
20260505120842 70 150 1.0 8.0 0.00 0.00 0.00 86 1003.4
20260505120405 70 167 2.0 8.0 0.00 0.00 0.00 86 1003.4
20260505115828 70 168 0.0 7.0 0.00 0.00 0.00 86 1003.2
20260505115342 70 163 1.0 7.0 0.00 0.00 0.00 86 1003.2
20260505114827 70 165 1.0 9.0 0.00 0.00 0.00 86 1003.2
20260505114324 70 146 2.0 9.0 0.00 0.00 0.00 86 1003.1
20260505113824 70 150 2.0 9.0 0.00 0.00 0.00 85 1003.1
20260505113347 70 157 2.0 10.0 0.00 0.00 0.00 85 1003.1
20260505112826 70 225 1.0 5.0 0.00 0.00 0.00 85 1003.0
20260505112339 70 157 1.0 10.0 0.00 0.00 0.00 85 1003.0
20260505111832 70 157 2.0 11.0 0.00 0.00 0.00 85 1002.9
20260505111327 70 141 2.0 11.0 0.00 0.00 0.00 85 1002.8
20260505110841 70 165 1.0 8.0 0.00 0.00 0.00 85 1002.8
20260505110336 70 163 1.0 7.0 0.00 0.00 0.00 85 1003.0
20260505101838 70 180 2.0 7.0 0.00 0.00 0.00 83 1002.7
20260505101330 70 163 2.0 7.0 0.00 0.00 0.00 83 1002.7
20260505100834 70 159 2.0 7.0 0.00 0.00 0.00 83 1002.7
20260505100325 70 207 1.0 5.0 0.00 0.00 0.00 83 1002.6
20260505095826 70 215 2.0 9.0 0.00 0.00 0.00 83 1002.4
20260505095402 70 165 2.0 10.0 0.00 0.00 0.00 83 1002.6
20260505094841 70 165 2.0 10.0 0.00 0.00 0.00 83 1002.6
20260505094346 70 160 2.0 7.0 0.00 0.00 0.00 82 1002.7
20260505093839 70 202 2.0 7.0 0.00 0.00 0.00 82 1002.9
20260505093347 70 137 2.0 9.0 0.00 0.00 0.00 82 1002.9
20260505092833 70 183 2.0 9.0 0.00 0.00 0.00 82 1002.9
20260505092342 70 170 1.0 9.0 0.00 0.00 0.00 82 1002.9
20260505091832 70 163 1.0 9.0 0.00 0.00 0.00 82 1003.1
20260505091340 70 157 2.0 11.0 0.00 0.00 0.00 81 1003.1
20260505090824 70 209 2.0 10.0 0.00 0.00 0.00 81 1003.2
20260505090330 70 157 1.0 9.0 0.00 0.00 0.00 81 1003.0
20260505085830 70 131 1.0 10.0 0.00 0.00 0.00 81 1003.1
20260505085357 70 227 1.0 10.0 0.00 0.00 0.00 81 1003.1
20260505084843 70 170 3.0 10.0 0.00 0.00 0.00 81 1003.1
20260505084327 70 146 3.0 10.0 0.00 0.00 0.00 81 1003.1
20260505083834 70 186 2.0 9.0 0.00 0.00 0.00 80 1003.0
20260505083336 71 154 2.0 9.0 0.00 0.00 0.00 80 1003.1
20260505082824 71 151 2.0 9.0 0.00 0.00 0.00 80 1003.2
20260505082337 71 146 2.0 9.0 0.00 0.00 0.00 79 1003.2
20260505081829 71 180 3.0 9.0 0.00 0.00 0.00 79 1003.3
20260505081338 71 148 2.0 12.0 0.00 0.00 0.00 79 1003.2
20260505080845 71 227 3.0 9.0 0.00 0.00 0.00 78 1003.4
20260505080347 71 148 2.0 9.0 0.00 0.00 0.00 78 1003.4
20260505075837 71 159 2.0 9.0 0.00 0.00 0.00 78 1003.5
20260505075332 71 200 3.0 8.0 0.00 0.00 0.00 78 1003.5
20260505074822 71 223 1.0 9.0 0.00 0.00 0.00 78 1003.7
20260505074327 71 180 1.0 9.0 0.00 0.00 0.00 78 1003.6
20260505073851 71 140 2.0 8.0 0.00 0.00 0.00 78 1003.6
20260505073327 71 250 2.0 7.0 0.00 0.00 0.00 78 1003.7
20260505072859 71 189 2.0 11.0 0.00 0.00 0.00 78 1003.8
20260505072340 71 150 3.0 11.0 0.00 0.00 0.00 77 1003.7
20260505071829 71 136 2.0 10.0 0.00 0.00 0.00 77 1003.7
20260505071340 71 158 3.0 10.0 0.00 0.00 0.00 77 1003.7
20260505070849 71 166 2.0 9.0 0.00 0.00 0.00 77 1003.8
20260505070334 71 147 3.0 9.0 0.00 0.00 0.00 77 1003.8
20260505065838 72 185 3.0 9.0 0.00 0.00 0.00 76 1003.8
20260505065327 72 177 2.0 11.0 0.00 0.00 0.00 77 1004.0
20260505064855 72 144 3.0 11.0 0.00 0.00 0.00 76 1004.1
20260505064330 72 157 1.0 11.0 0.00 0.00 0.00 76 1004.1
20260505063842 72 157 3.0 11.0 0.00 0.00 0.00 76 1004.2
20260505063337 72 176 1.0 8.0 0.00 0.00 0.00 76 1004.2
20260505062837 72 153 3.0 9.0 0.00 0.00 0.00 76 1004.3
20260505062405 72 146 2.0 9.0 0.00 0.00 0.00 76 1004.4
20260505061832 72 178 2.0 9.0 0.00 0.00 0.00 76 1004.5
20260505061327 72 158 2.0 9.0 0.00 0.00 0.00 76 1004.5
20260505060824 72 159 2.0 12.0 0.00 0.00 0.00 76 1004.5
20260505060339 72 153 3.0 12.0 0.00 0.00 0.00 76 1004.6
20260505035835 72 169 2.0 10.0 0.00 0.00 0.00 71 1005.6
20260505035326 72 163 2.0 9.0 0.00 0.00 0.00 70 1005.6